• In Moldova, Republic
  • List of Countries
  • For 7 days
  • Water Temperature
  • Satellite Maps
  • Weather Map
  • Weather Widgets
  • user-avatar
    Login

    Hourly Weather Kaprun

    Today, 30 March, Thursday

    Time Temperature Precipitation Wind Pressure Humidity
    00:00 -1°C° 0 mm 1 mps 600 mmHg 93%
    01:00 -1°C° 0 mm 1 mps 600 mmHg 93%
    02:00 -1°C° 0 mm 1 mps 600 mmHg 93%
    03:00 -1°C° 0 mm 1 mps 600 mmHg 93%
    04:00 -1°C° 0 mm 1 mps 600 mmHg 93%
    05:00 0°C° 0 mm 1 mps 601 mmHg 92%
    06:00 0°C° 0 mm 1 mps 601 mmHg 91%
    07:00 +1°C° 0 mm 1 mps 601 mmHg 90%
    08:00 +3°C° 0 mm 1 mps 602 mmHg 83%
    09:00 +4°C° 0 mm 0 mps 603 mmHg 76%
    10:00 +6°C° 0 mm 0 mps 604 mmHg 70%
    11:00 +7°C° 0 mm 0 mps 604 mmHg 66%
    12:00 +8°C° 0 mm 0 mps 604 mmHg 63%
    13:00 +9°C° 0 mm 0 mps 605 mmHg 60%
    14:00 +9°C° 0 mm 1 mps 604 mmHg 62%
    15:00 +9°C° 0 mm 1 mps 604 mmHg 64%
    16:00 +9°C° 0 mm 1 mps 604 mmHg 65%
    17:00 +6°C° 0 mm 1 mps 602 mmHg 74%
    18:00 +3°C° 0 mm 1 mps 601 mmHg 84%
    19:00 0°C° 0 mm 1 mps 599 mmHg 93%
    20:00 0°C° 0 mm 1 mps 600 mmHg 92%
    21:00 +1°C° 0 mm 1 mps 600 mmHg 91%
    22:00 +1°C° 0 mm 1 mps 600 mmHg 90%
    23:00 -1°C° 0 mm 2 mps 600 mmHg 90%

    Tomorrow, 31 March, Friday

    Time Temperature Precipitation Wind Pressure Humidity
    00:00 -1°C° 0 mm 2 mps 600 mmHg 90%
    01:00 -2°C° 0 mm 2 mps 600 mmHg 89%
    02:00 -2°C° 0 mm 2 mps 600 mmHg 90%
    03:00 -2°C° 0 mm 2 mps 600 mmHg 90%
    04:00 -2°C° 0 mm 2 mps 599 mmHg 91%
    05:00 -1°C° 0 mm 2 mps 600 mmHg 91%
    06:00 -1°C° 0 mm 2 mps 600 mmHg 90%
    07:00 +1°C° 0 mm 2 mps 600 mmHg 90%
    08:00 +3°C° 0 mm 2 mps 600 mmHg 83%
    09:00 +5°C° 0 mm 2 mps 601 mmHg 76%
    10:00 +7°C° 0 mm 2 mps 602 mmHg 69%
    11:00 +8°C° 0 mm 2 mps 602 mmHg 65%
    12:00 +9°C° 0 mm 2 mps 602 mmHg 62%
    13:00 +10°C° 0 mm 2 mps 602 mmHg 58%
    14:00 +9°C° 0 mm 2 mps 601 mmHg 61%
    15:00 +9°C° 0 mm 2 mps 600 mmHg 64%
    16:00 +8°C° 0 mm 2 mps 600 mmHg 66%
    17:00 +6°C° 0 mm 2 mps 599 mmHg 75%
    18:00 +4°C° 0 mm 2 mps 597 mmHg 85%
    19:00 +2°C° 0 mm 2 mps 596 mmHg 94%
    20:00 +1°C° 0 mm 2 mps 596 mmHg 94%
    21:00 +1°C° 0 mm 2 mps 596 mmHg 93%
    22:00 +1°C° 0 mm 2 mps 596 mmHg 93%
    23:00 +1°C° 0 mm 2 mps 596 mmHg 93%

    Day after tomorrow, 1 April, Saturday

    Time Temperature Precipitation Wind Pressure Humidity
    00:00 -1°C° 0 mm 2 mps 596 mmHg 93%
    01:00 -1°C° 0 mm 2 mps 595 mmHg 93%
    02:00 -1°C° 0 mm 2 mps 595 mmHg 93%
    03:00 -1°C° 0 mm 2 mps 595 mmHg 93%
    04:00 -1°C° 0 mm 2 mps 595 mmHg 93%
    05:00 -1°C° 0 mm 2 mps 595 mmHg 92%
    06:00 -1°C° 0 mm 2 mps 595 mmHg 91%
    07:00 -1°C° 0 mm 2 mps 595 mmHg 90%
    08:00 +2°C° 0 mm 2 mps 595 mmHg 83%
    09:00 +4°C° 0 mm 2 mps 596 mmHg 75%
    10:00 +6°C° 0 mm 2 mps 597 mmHg 67%
    11:00 +7°C° 0 mm 2 mps 597 mmHg 64%
    12:00 +7°C° 0 mm 2 mps 597 mmHg 61%
    13:00 +8°C° 0 mm 2 mps 597 mmHg 57%
    14:00 +8°C° 0.2 mm 2 mps 597 mmHg 59%
    15:00 +7°C° 0.2 mm 2 mps 596 mmHg 61%
    16:00 +7°C° 0.2 mm 2 mps 596 mmHg 63%
    17:00 +5°C° 0.2 mm 2 mps 595 mmHg 73%
    18:00 +3°C° 0.2 mm 2 mps 595 mmHg 83%
    19:00 +1°C° 0.2 mm 2 mps 594 mmHg 93%
    20:00 -1°C° 0 mm 2 mps 594 mmHg 93%
    21:00 -1°C° 0 mm 2 mps 595 mmHg 92%
    22:00 -1°C° 0 mm 2 mps 595 mmHg 92%
    23:00 -2°C° 0 mm 2 mps 595 mmHg 92%

    2 April, Sunday

    Time Temperature Precipitation Wind Pressure Humidity
    00:00 -2°C° 0 mm 2 mps 595 mmHg 92%
    01:00 -1°C° 0 mm 1 mps 595 mmHg 93%
    02:00 -1°C° 0 mm 1 mps 595 mmHg 92%
    03:00 -2°C° 0 mm 1 mps 595 mmHg 92%
    04:00 -2°C° 0 mm 1 mps 595 mmHg 92%
    05:00 -1°C° 0 mm 1 mps 595 mmHg 87%
    06:00 0°C° 0 mm 1 mps 596 mmHg 81%
    07:00 0°C° 0 mm 0 mps 597 mmHg 75%
    08:00 +2°C° 0 mm 0 mps 598 mmHg 70%
    09:00 +5°C° 0 mm 1 mps 599 mmHg 64%
    10:00 +7°C° 0 mm 1 mps 600 mmHg 59%
    11:00 +7°C° 0.1 mm 1 mps 600 mmHg 57%
    12:00 +8°C° 0.1 mm 1 mps 601 mmHg 56%
    13:00 +9°C° 0.1 mm 1 mps 601 mmHg 55%
    14:00 +9°C° 0.2 mm 1 mps 601 mmHg 58%
    15:00 +8°C° 0.2 mm 1 mps 600 mmHg 62%
    16:00 +8°C° 0.2 mm 1 mps 600 mmHg 65%
    17:00 +6°C° 0.2 mm 1 mps 599 mmHg 75%
    18:00 +3°C° 0.2 mm 1 mps 598 mmHg 85%
    19:00 0°C° 0.2 mm 0 mps 598 mmHg 96%
    20:00 +1°C° 0.1 mm 1 mps 598 mmHg 96%
    21:00 +1°C° 0.1 mm 1 mps 598 mmHg 97%
    22:00 +1°C° 0.1 mm 1 mps 599 mmHg 98%
    23:00 +1°C° 0 mm 1 mps 599 mmHg 98%

    3 April, Monday

    Time Temperature Precipitation Wind Pressure Humidity
    00:00 +1°C° 0 mm 1 mps 599 mmHg 98%
    01:00 +1°C° 0 mm 1 mps 599 mmHg 98%
    02:00 +1°C° 0 mm 1 mps 599 mmHg 98%
    03:00 +1°C° 0 mm 1 mps 599 mmHg 97%
    04:00 -1°C° 0 mm 2 mps 599 mmHg 97%
    05:00 -1°C° 0 mm 2 mps 600 mmHg 96%
    06:00 +1°C° 0 mm 2 mps 600 mmHg 95%
    07:00 +1°C° 0 mm 2 mps 600 mmHg 93%
    08:00 +2°C° 0.1 mm 2 mps 601 mmHg 88%
    09:00 +3°C° 0.1 mm 2 mps 601 mmHg 83%
    10:00 +4°C° 0.1 mm 2 mps 602 mmHg 78%
    11:00 +5°C° 0.2 mm 2 mps 602 mmHg 76%
    12:00 +5°C° 0.2 mm 2 mps 602 mmHg 74%
    13:00 +6°C° 0.2 mm 2 mps 602 mmHg 72%
    14:00 +6°C° 0.3 mm 2 mps 602 mmHg 74%
    15:00 +5°C° 0.3 mm 2 mps 602 mmHg 77%
    16:00 +5°C° 0.3 mm 2 mps 601 mmHg 79%
    17:00 +4°C° 0.2 mm 2 mps 601 mmHg 85%
    18:00 +2°C° 0.2 mm 2 mps 600 mmHg 90%
    19:00 +1°C° 0.2 mm 2 mps 600 mmHg 96%
    20:00 +1°C° 0.1 mm 2 mps 600 mmHg 96%
    21:00 -1°C° 0.1 mm 2 mps 600 mmHg 96%
    22:00 -1°C° 0.1 mm 2 mps 600 mmHg 96%
    23:00 -1°C° 0.1 mm 2 mps 600 mmHg 96%

    4 April, Tuesday

    Time Temperature Precipitation Wind Pressure Humidity
    00:00 -1°C° 0.1 mm 2 mps 600 mmHg 96%
    01:00 -1°C° 0.1 mm 2 mps 600 mmHg 96%
    02:00 -2°C° 0.1 mm 2 mps 600 mmHg 96%
    03:00 -2°C° 0.1 mm 2 mps 600 mmHg 97%
    04:00 -2°C° 0.1 mm 2 mps 600 mmHg 97%
    05:00 -2°C° 0 mm 2 mps 600 mmHg 95%
    06:00 -2°C° 0 mm 2 mps 600 mmHg 94%
    07:00 -1°C° 0 mm 2 mps 600 mmHg 92%
    08:00 +1°C° 0.1 mm 2 mps 601 mmHg 86%
    09:00 +2°C° 0.1 mm 2 mps 601 mmHg 79%
    10:00 +3°C° 0.1 mm 2 mps 601 mmHg 72%
    11:00 +4°C° 0 mm 2 mps 601 mmHg 69%
    12:00 +4°C° 0 mm 2 mps 601 mmHg 66%
    13:00 +5°C° 0 mm 2 mps 601 mmHg 63%
    14:00 +5°C° 0 mm 2 mps 601 mmHg 64%
    15:00 +5°C° 0 mm 2 mps 601 mmHg 66%
    16:00 +4°C° 0 mm 2 mps 601 mmHg 68%
    17:00 +3°C° 0 mm 2 mps 600 mmHg 76%
    18:00 +1°C° 0 mm 2 mps 599 mmHg 85%
    19:00 -2°C° 0 mm 2 mps 599 mmHg 94%
    20:00 -2°C° 0 mm 2 mps 599 mmHg 94%
    21:00 -3°C° 0 mm 2 mps 599 mmHg 95%
    22:00 -3°C° 0 mm 2 mps 599 mmHg 95%
    23:00 -3°C° 0 mm 2 mps 599 mmHg 95%
    Show more